Estherville, IA

1:03 AM CDT on July 26, 2017 (GMT -0500)
Estherville Municipal

Weather History for KEST - January, 2012

Change the Weather History Date:

Thursday, January 19, 2012

  Actual Average Record
Temperature  
Mean Temperature -2 °F 16 °F  
Max Temperature 4 °F 24 °F 48 °F (2014)
Min Temperature -8 °F 7 °F -27 °F (1970)
Degree Days  
Heating Degree Days 67 49  
Month to date heating degree days 787 944  
Since 1 July heating degree days 3473 4087  
Cooling Degree Days 0 0  
Month to date cooling degree days 0 0  
Year to date cooling degree days 0 0  
Moisture  
Dew Point -13 °F    
Average Humidity 58    
Maximum Humidity 71    
Minimum Humidity 44    
Precipitation  
Precipitation 0.00 in 0.02 in 0.25 in (1977)
Month to date precipitation T 0.21  
Year to date precipitation T  
Sea Level Pressure  
Sea Level Pressure 30.19 in    
Wind  
Wind Speed 10 mph (NNW)    
Max Wind Speed 25 mph    
Max Gust Speed 33 mph    
Visibility 10 miles    
Events      
T = Trace of Precipitation, MM = Missing Value Source: NWS Daily Summary

Daily Weather History Graph

Daily Weather History Graph

Search for Another Location

Airport or City:

Trip Planner

Search our weather history database for the weather conditions in past years. The results will help you decide how hot, cold, wet, or windy it might be!

Date:

Astronomy

Jan. 19, 2012 Rise Set
Actual Time 7:46 AM CST 5:12 PM CST
Civil Twilight 7:15 AM CST 5:44 PM CST
Nautical Twilight 6:40 AM CST 6:19 PM CST
Astronomical Twilight 6:06 AM CST 6:53 PM CST
Moon 4:25 AM CST (1/19) 1:43 PM CST (1/19)
Length of Visible Light 10h 29m
Length of Day
9h 26m
Waning Crescent, 15% of the Moon is Illuminated
Jan 19
Waning Crescent
Jan 23
New
Jan 30
First Quarter
Feb 7
Full
Feb 14
Last Quarter

Hourly Weather History & Observations

Time (CST) Temp. Windchill Dew Point Humidity Pressure Visibility Wind Dir Wind Speed Gust Speed Precip Events Conditions
12:52 AM -0.9 °F -24.1 °F -9.0 °F 69% 30.07 in 10.0 mi NNW 21.9 mph 25.3 mph N/A   Overcast
1:52 AM -2.0 °F -25.0 °F -9.9 °F 69% 30.08 in 10.0 mi NNW 20.7 mph 29.9 mph N/A   Overcast
2:52 AM -2.9 °F -26.7 °F -13.0 °F 62% 30.09 in 10.0 mi NNW 21.9 mph 29.9 mph N/A   Overcast
3:52 AM -4.0 °F -28.6 °F -14.1 °F 62% 30.08 in 10.0 mi North 23.0 mph - N/A   Overcast
4:52 AM -5.1 °F -27.2 °F -15.0 °F 62% 30.12 in 10.0 mi NNW 17.3 mph 29.9 mph N/A   Overcast
5:52 AM -6.0 °F -29.6 °F -15.0 °F 65% 30.17 in 10.0 mi North 19.6 mph - N/A   Overcast
6:52 AM -6.0 °F -25.5 °F -15.0 °F 65% 30.19 in 10.0 mi North 12.7 mph - N/A   Clear
7:52 AM -7.1 °F -26.8 °F -17.0 °F 62% 30.23 in 10.0 mi North 12.7 mph - N/A   Clear
8:52 AM -7.1 °F -25.9 °F -16.1 °F 65% 30.25 in 10.0 mi North 11.5 mph - N/A   Clear
9:52 AM -5.1 °F -22.5 °F -16.1 °F 59% 30.27 in 10.0 mi North 10.4 mph - N/A   Clear
10:52 AM -4.0 °F -23.0 °F -16.1 °F 56% 30.27 in 10.0 mi North 12.7 mph - N/A   Clear
11:52 AM -0.9 °F -15.3 °F -14.1 °F 54% 30.26 in 10.0 mi North 8.1 mph - N/A   Clear
1:52 PM 1.0 °F -10.3 °F -14.1 °F 49% 30.23 in 10.0 mi NW 5.8 mph - N/A   Clear
2:52 PM 1.9 °F -7.6 °F -15.0 °F 45% 30.22 in 10.0 mi NNW 4.6 mph - N/A   Clear
3:52 PM 3.0 °F -8.0 °F -14.1 °F 45% 30.22 in 10.0 mi NW 5.8 mph - N/A   Clear
4:52 PM 1.9 °F - -14.1 °F 47% 30.21 in 10.0 mi Calm Calm - N/A   Clear
5:52 PM 1.0 °F -6.7 °F -13.0 °F 52% 30.21 in 10.0 mi WSW 3.5 mph - N/A   Clear
8:52 PM -0.9 °F -8.9 °F -11.0 °F 62% 30.21 in 10.0 mi SSE 3.5 mph - N/A   Overcast
9:52 PM -0.9 °F -11.0 °F -11.9 °F 60% 30.20 in 10.0 mi South 4.6 mph - N/A   Clear
10:52 PM 1.0 °F -6.7 °F -9.9 °F 60% 30.20 in 10.0 mi South 3.5 mph - N/A   Overcast
11:52 PM 1.9 °F -7.6 °F -9.0 °F 60% 30.18 in 10.0 mi SSE 4.6 mph - N/A   Overcast